Weather History for KMNE - February, 2013

Change the Weather History Date:

Thursday, February 7, 2013

  Actual Average (KSHV) Record (KSHV)
Temperature  
Mean Temperature 58 °F 49 °F  
Max Temperature 64 °F 60 °F 82 °F (1950)
Min Temperature 52 °F 38 °F 4 °F (1895)
Degree Days  
Heating Degree Days 7 16  
Month to date heating degree days 117  
Since 1 July heating degree days 1589  
Cooling Degree Days 0 0  
Month to date cooling degree days 0  
Year to date cooling degree days 4  
Growing Degree Days 8 (Base 50)    
Moisture  
Dew Point 54 °F    
Average Humidity 84    
Maximum Humidity 95    
Minimum Humidity 70    
Precipitation  
Precipitation 0.00 in 0.17 in 2.11 in (1884)
Month to date precipitation 1.15  
Year to date precipitation 5.35  
Snow  
Snow 0.00 in - - ()
Month to date snowfall  
Since 1 July snowfall  
Snow Depth -    
Sea Level Pressure  
Sea Level Pressure 29.94 in    
Wind  
Wind Speed 2 mph (SSE)    
Max Wind Speed 8 mph    
Max Gust Speed -    
Visibility 7 miles    
Events Fog    
T = Trace of Precipitation, MM = Missing Value Source: NWS Daily Summary

Daily Weather History Graph

Daily Weather History Graph

Search for Another Location

Airport or City:

Trip Planner

Search our weather history database for the weather conditions in past years. The results will help you decide how hot, cold, wet, or windy it might be!

Date:

Astronomy

Feb. 07, 2013 Rise Set
Actual Time 7:03 AM CST 5:51 PM CST
Civil Twilight 6:37 AM CST 6:17 PM CST
Nautical Twilight 6:08 AM CST 6:46 PM CST
Astronomical Twilight 5:39 AM CST 7:15 PM CST
Moon 4:38 AM CST (2/7) 3:21 PM CST (2/7)
Length of Visible Light 11h 39m
Length of Day
10h 48m
Waning Crescent, 9% of the Moon is Illuminated
Feb 7
Waning Crescent
Feb 10
New
Feb 17
First Quarter
Feb 25
Full
Mar 4
Last Quarter

Hourly Weather History & Observations

Time (CST) Temp. Dew Point Humidity Pressure Visibility Wind Dir Wind Speed Gust Speed Precip Events Conditions
12:15 AM 57.2 °F 54.5 °F 91% 29.99 in 5.0 mi Calm Calm - N/A   Overcast
12:35 AM 56.5 °F 54.1 °F 92% 29.98 in 4.0 mi Calm Calm - N/A   Overcast
12:55 AM 56.8 °F 54.5 °F 92% 29.98 in 5.0 mi SE 3.5 mph - N/A   Overcast
1:15 AM 57.4 °F 55.2 °F 92% 29.97 in 7.0 mi Calm Calm - N/A   Overcast
1:35 AM 57.6 °F 55.0 °F 91% 29.97 in 7.0 mi Calm Calm - N/A   Overcast
1:55 AM 57.2 °F 54.7 °F 91% 29.97 in 5.0 mi Calm Calm - N/A   Overcast
2:15 AM 57.0 °F 54.9 °F 92% 29.96 in 5.0 mi Calm Calm - N/A   Overcast
2:35 AM 56.7 °F 54.5 °F 92% 29.95 in 4.0 mi Calm Calm - N/A   Overcast
2:55 AM 56.1 °F 54.0 °F 92% 29.95 in 3.0 mi Calm Calm - N/A   Overcast
3:15 AM 55.6 °F 53.6 °F 93% 29.94 in 0.8 mi Calm Calm - N/A   Overcast
3:35 AM 55.0 °F 53.2 °F 94% 29.94 in 1.5 mi Calm Calm - N/A   Overcast
3:55 AM 55.2 °F 53.4 °F 94% 29.94 in 3.0 mi Calm Calm - N/A   Overcast
4:15 AM 55.4 °F 53.6 °F 94% 29.94 in 2.5 mi Calm Calm - N/A   Overcast
4:35 AM 54.5 °F 52.7 °F 94% 29.94 in 2.5 mi Calm Calm - N/A   Overcast
4:55 AM 54.1 °F 52.3 °F 94% 29.94 in 1.2 mi Calm Calm - N/A   Overcast
5:15 AM 54.1 °F 52.5 °F 94% 29.94 in 0.2 mi Calm Calm - N/A Fog Fog
5:35 AM 54.0 °F 52.3 °F 94% 29.94 in 1.2 mi Calm Calm - N/A   Overcast
5:55 AM 53.2 °F 51.8 °F 95% 29.93 in 2.0 mi Calm Calm - N/A   Overcast
6:15 AM 54.3 °F 52.7 °F 94% 29.94 in 1.8 mi Calm Calm - N/A   Overcast
6:35 AM 54.3 °F 52.7 °F 94% 29.94 in 1.2 mi Calm Calm - N/A   Overcast
6:55 AM 54.3 °F 52.7 °F 94% 29.94 in 0.5 mi Calm Calm - N/A Fog Fog
7:15 AM 52.9 °F 51.3 °F 94% 29.94 in 0.2 mi Calm Calm - N/A Fog Fog
7:35 AM 53.1 °F 51.8 °F 95% 29.94 in 0.2 mi Calm Calm - N/A Fog Fog
8:15 AM 55.4 °F 53.8 °F 94% 29.96 in 0.5 mi Calm Calm - N/A Fog Fog
8:35 AM 56.5 °F 55.0 °F 95% 29.96 in 1.8 mi ESE 3.5 mph - N/A   Mostly Cloudy
8:55 AM 57.9 °F 56.3 °F 94% 29.96 in 7.0 mi ESE 4.6 mph - N/A   Clear
9:15 AM 60.1 °F 55.8 °F 86% 29.96 in 10.0 mi SE 3.5 mph - N/A   Clear
9:35 AM 62.4 °F 55.2 °F 77% 29.97 in 10.0 mi SE 4.6 mph - N/A   Scattered Clouds
9:55 AM 63.7 °F 55.4 °F 74% 29.97 in 10.0 mi SE 6.9 mph - N/A   Overcast
10:15 AM 63.1 °F 54.7 °F 74% 29.97 in 10.0 mi SSE 4.6 mph - N/A   Overcast
10:35 AM 63.5 °F 54.7 °F 73% 29.99 in 10.0 mi SSW 5.8 mph - N/A   Overcast
10:55 AM 63.5 °F 54.5 °F 72% 29.98 in 10.0 mi SSE 3.5 mph - N/A   Overcast
11:15 AM 63.1 °F 54.3 °F 73% 29.98 in 10.0 mi South 4.6 mph - N/A   Overcast
11:35 AM 63.5 °F 54.5 °F 72% 29.98 in 5.0 mi South 3.5 mph - N/A   Haze
11:55 AM 63.3 °F 54.3 °F 72% 29.97 in 10.0 mi South 3.5 mph - N/A   Overcast
12:15 PM 63.1 °F 54.5 °F 73% 29.96 in 10.0 mi South 5.8 mph - N/A   Overcast
12:35 PM 63.5 °F 54.7 °F 73% 29.96 in 10.0 mi South 4.6 mph - N/A   Overcast
12:55 PM 63.5 °F 54.9 °F 73% 29.94 in 10.0 mi SSE 3.5 mph - N/A   Overcast
1:15 PM 64.8 °F 54.7 °F 70% 29.93 in 10.0 mi South 5.8 mph - N/A   Overcast
1:35 PM 63.7 °F 54.5 °F 72% 29.93 in 10.0 mi South 3.5 mph - N/A   Overcast
1:55 PM 63.3 °F 54.5 °F 73% 29.93 in 10.0 mi South 3.5 mph - N/A   Overcast
2:15 PM 63.5 °F 54.5 °F 72% 29.92 in 10.0 mi South 5.8 mph - N/A   Overcast
2:35 PM 63.5 °F 54.7 °F 73% 29.92 in 10.0 mi SW 5.8 mph - N/A   Overcast
2:55 PM 63.7 °F 54.5 °F 72% 29.91 in 10.0 mi South 4.6 mph - N/A   Overcast
3:15 PM 63.7 °F 54.5 °F 72% 29.91 in 10.0 mi SSW 5.8 mph - N/A   Overcast
3:35 PM 63.1 °F 54.5 °F 73% 29.91 in 10.0 mi SSW 8.1 mph - N/A   Overcast
3:55 PM 63.0 °F 54.5 °F 74% 29.91 in 10.0 mi SSE 3.5 mph - N/A   Overcast
4:15 PM 63.1 °F 54.0 °F 72% 29.91 in 10.0 mi SSE 4.6 mph - N/A   Overcast
4:35 PM 63.1 °F 53.8 °F 71% 29.90 in 10.0 mi SSE 5.8 mph - N/A   Overcast
4:55 PM 62.6 °F 54.0 °F 73% 29.91 in 10.0 mi South 5.8 mph - N/A   Overcast
5:15 PM 62.1 °F 54.3 °F 76% 29.91 in 10.0 mi South 4.6 mph - N/A   Overcast
5:35 PM 61.9 °F 54.5 °F 77% 29.91 in 10.0 mi South 3.5 mph - N/A   Overcast
5:55 PM 61.7 °F 54.5 °F 77% 29.92 in 10.0 mi Calm Calm - N/A   Overcast
6:15 PM 61.2 °F 54.9 °F 80% 29.92 in 10.0 mi Calm Calm - N/A   Overcast
6:35 PM 60.8 °F 54.5 °F 80% 29.93 in 10.0 mi Calm Calm - N/A   Overcast
6:55 PM 60.8 °F 54.5 °F 80% 29.93 in 10.0 mi Calm Calm - N/A   Overcast
7:15 PM 60.8 °F 54.5 °F 80% 29.92 in 10.0 mi ESE 3.5 mph - N/A   Overcast
7:35 PM 59.2 °F 54.0 °F 83% 29.92 in 10.0 mi SE 3.5 mph - N/A   Scattered Clouds
7:55 PM 58.3 °F 53.8 °F 85% 29.92 in 10.0 mi SSE 3.5 mph - N/A   Clear
8:15 PM 57.9 °F 53.8 °F 86% 29.92 in 10.0 mi Calm Calm - N/A   Clear
8:35 PM 57.4 °F 53.8 °F 88% 29.94 in 10.0 mi Calm Calm - N/A   Clear
8:55 PM 57.4 °F 54.0 °F 88% 29.94 in 7.0 mi Calm Calm - N/A   Mostly Cloudy
9:15 PM 57.0 °F 53.8 °F 89% 29.94 in 10.0 mi SSE 3.5 mph - N/A   Overcast
9:35 PM 58.3 °F 54.3 °F 87% 29.95 in 10.0 mi Calm Calm - N/A   Overcast
9:55 PM 58.3 °F 54.5 °F 87% 29.95 in 10.0 mi Calm Calm - N/A   Overcast
10:15 PM 58.3 °F 54.5 °F 87% 29.95 in 10.0 mi Calm Calm - N/A   Overcast
10:35 PM 58.1 °F 54.5 °F 88% 29.96 in 10.0 mi Calm Calm - N/A   Overcast
10:55 PM 58.3 °F 54.5 °F 87% 29.96 in 10.0 mi Calm Calm - N/A   Overcast
11:15 PM 58.3 °F 54.7 °F 88% 29.96 in 10.0 mi South 3.5 mph - N/A   Overcast
11:35 PM 57.6 °F 54.5 °F 90% 29.96 in 10.0 mi Calm Calm - N/A   Mostly Cloudy
11:55 PM 57.2 °F 54.5 °F 91% 29.96 in 10.0 mi Calm Calm - N/A   Scattered Clouds